When you browse on this site, cookies collect data to enhance your experience and personalize the content and advertising you see.
Visit our Privacy Policy to learn more. By continuing to use the site, you agree to this use of cookies and data.
  • In Austria
  • List of Countries
  • For 7 days
  • Water Temperature
  • Satellite Maps
  • Weather Map
  • News
  • Weather Widgets
  • user-avatar
    Login

    Hourly Weather Andon

    Today, 24 March, Sunday

    Time Temperature Precipitation Wind Pressure Humidity
    00:00 0°C° 0 mm 1 mps 753 mmHg 68%
    01:00 -1°C° 0 mm 1 mps 753 mmHg 68%
    02:00 -1°C° 0 mm 1 mps 753 mmHg 67%
    03:00 -2°C° 0 mm 0 mps 753 mmHg 66%
    04:00 -2°C° 0 mm 0 mps 753 mmHg 65%
    05:00 -1°C° 0 mm 1 mps 753 mmHg 65%
    06:00 -1°C° 0 mm 1 mps 753 mmHg 64%
    07:00 +1°C° 0 mm 1 mps 753 mmHg 55%
    08:00 +2°C° 0 mm 1 mps 754 mmHg 46%
    09:00 +3°C° 0 mm 2 mps 754 mmHg 29%
    10:00 +5°C° 0 mm 2 mps 754 mmHg 27%
    11:00 +5°C° 0 mm 3 mps 753 mmHg 24%
    12:00 +8°C° 0 mm 3 mps 753 mmHg 21%
    13:00 +8°C° 0 mm 4 mps 752 mmHg 23%
    14:00 +8°C° 0 mm 4 mps 752 mmHg 26%
    15:00 +10°C° 0 mm 4 mps 751 mmHg 30%
    16:00 +9°C° 0 mm 3 mps 751 mmHg 35%
    17:00 +8°C° 0 mm 3 mps 751 mmHg 41%
    18:00 +7°C° 0 mm 3 mps 751 mmHg 46%
    19:00 +5°C° 0 mm 3 mps 751 mmHg 53%
    20:00 +4°C° 0 mm 2 mps 751 mmHg 59%
    21:00 +2°C° 0 mm 2 mps 751 mmHg 65%
    22:00 +2°C° 0 mm 2 mps 751 mmHg 68%
    23:00 +1°C° 0 mm 2 mps 751 mmHg 70%

    Tomorrow, 25 March, Monday

    Time Temperature Precipitation Wind Pressure Humidity
    00:00 +2°C° 0 mm 1 mps 751 mmHg 73%
    01:00 +1°C° 0 mm 1 mps 751 mmHg 74%
    02:00 +1°C° 0 mm 1 mps 751 mmHg 74%
    03:00 +1°C° 0 mm 1 mps 750 mmHg 74%
    04:00 +1°C° 0 mm 1 mps 750 mmHg 74%
    05:00 +1°C° 0 mm 1 mps 750 mmHg 73%
    06:00 +1°C° 0 mm 1 mps 750 mmHg 73%
    07:00 +3°C° 0 mm 1 mps 750 mmHg 69%
    08:00 +5°C° 0 mm 1 mps 750 mmHg 65%
    09:00 +7°C° 0 mm 1 mps 750 mmHg 61%
    10:00 +8°C° 0 mm 1 mps 750 mmHg 59%
    11:00 +9°C° 0 mm 2 mps 750 mmHg 56%
    12:00 +10°C° 0 mm 2 mps 750 mmHg 54%
    13:00 +11°C° 0 mm 3 mps 749 mmHg 52%
    14:00 +12°C° 0 mm 3 mps 749 mmHg 50%
    15:00 +13°C° 0 mm 3 mps 749 mmHg 48%
    16:00 +13°C° 0 mm 3 mps 749 mmHg 51%
    17:00 +12°C° 0 mm 3 mps 749 mmHg 55%
    18:00 +12°C° 0 mm 3 mps 748 mmHg 58%
    19:00 +10°C° 0 mm 3 mps 749 mmHg 64%
    20:00 +9°C° 0 mm 3 mps 749 mmHg 69%
    21:00 +7°C° 0 mm 3 mps 749 mmHg 74%
    22:00 +7°C° 0 mm 2 mps 749 mmHg 77%
    23:00 +6°C° 0 mm 2 mps 749 mmHg 80%

    Day after tomorrow, 26 March, Tuesday

    Time Temperature Precipitation Wind Pressure Humidity
    00:00 +6°C° 0 mm 2 mps 749 mmHg 83%
    01:00 +6°C° 0 mm 1 mps 749 mmHg 85%
    02:00 +6°C° 0 mm 1 mps 749 mmHg 87%
    03:00 +5°C° 0 mm 1 mps 749 mmHg 90%
    04:00 +5°C° 0 mm 1 mps 749 mmHg 90%
    05:00 +5°C° 0 mm 1 mps 749 mmHg 90%
    06:00 +4°C° 0 mm 0 mps 749 mmHg 91%
    07:00 +7°C° 0 mm 1 mps 749 mmHg 86%
    08:00 +9°C° 0 mm 1 mps 750 mmHg 81%
    09:00 +9°C° 0 mm 2 mps 750 mmHg 76%
    10:00 +11°C° 0 mm 3 mps 750 mmHg 66%
    11:00 +13°C° 0 mm 4 mps 751 mmHg 55%
    12:00 +14°C° 0 mm 5 mps 751 mmHg 44%
    13:00 +15°C° 0 mm 5 mps 751 mmHg 38%
    14:00 +16°C° 0 mm 5 mps 750 mmHg 31%
    15:00 +17°C° 0 mm 5 mps 750 mmHg 25%
    16:00 +17°C° 0 mm 4 mps 750 mmHg 28%
    17:00 +16°C° 0 mm 3 mps 751 mmHg 31%
    18:00 +14°C° 0 mm 2 mps 751 mmHg 34%
    19:00 +13°C° 0 mm 1 mps 751 mmHg 36%
    20:00 +11°C° 0 mm 1 mps 751 mmHg 39%
    21:00 +8°C° 0 mm 0 mps 752 mmHg 42%
    22:00 +8°C° 0 mm 0 mps 752 mmHg 42%
    23:00 +7°C° 0 mm 0 mps 752 mmHg 42%

    27 March, Wednesday

    Time Temperature Precipitation Wind Pressure Humidity
    00:00 +7°C° 0 mm 0 mps 752 mmHg 43%
    01:00 +6°C° 0 mm 0 mps 751 mmHg 44%
    02:00 +6°C° 0 mm 0 mps 751 mmHg 46%
    03:00 +6°C° 0 mm 0 mps 751 mmHg 47%
    04:00 +6°C° 0 mm 0 mps 750 mmHg 49%
    05:00 +7°C° 0 mm 0 mps 750 mmHg 51%
    06:00 +8°C° 0 mm 1 mps 749 mmHg 53%
    07:00 +10°C° 0 mm 1 mps 749 mmHg 51%
    08:00 +10°C° 0 mm 2 mps 749 mmHg 49%
    09:00 +12°C° 0 mm 3 mps 749 mmHg 47%
    10:00 +15°C° 0 mm 4 mps 748 mmHg 45%
    11:00 +17°C° 0 mm 6 mps 748 mmHg 42%
    12:00 +20°C° 0 mm 7 mps 748 mmHg 40%
    13:00 +21°C° 0 mm 7 mps 747 mmHg 37%
    14:00 +21°C° 0 mm 7 mps 746 mmHg 35%
    15:00 +21°C° 0 mm 8 mps 745 mmHg 32%
    16:00 +20°C° 0 mm 6 mps 745 mmHg 35%
    17:00 +17°C° 0 mm 5 mps 744 mmHg 37%
    18:00 +17°C° 0 mm 4 mps 744 mmHg 40%
    19:00 +15°C° 0 mm 4 mps 744 mmHg 49%
    20:00 +13°C° 0 mm 4 mps 745 mmHg 58%
    21:00 +12°C° 0 mm 3 mps 745 mmHg 67%
    22:00 +11°C° 0 mm 4 mps 745 mmHg 72%
    23:00 +11°C° 0 mm 4 mps 745 mmHg 77%

    28 March, Thursday

    Time Temperature Precipitation Wind Pressure Humidity
    00:00 +11°C° 0 mm 4 mps 745 mmHg 82%
    01:00 +11°C° 0 mm 3 mps 745 mmHg 82%
    02:00 +10°C° 0 mm 3 mps 745 mmHg 82%
    03:00 +9°C° 0 mm 3 mps 745 mmHg 82%
    04:00 +8°C° 0 mm 3 mps 746 mmHg 81%
    05:00 +7°C° 0 mm 3 mps 746 mmHg 79%
    06:00 +5°C° 0 mm 3 mps 747 mmHg 77%
    07:00 +7°C° 0 mm 2 mps 747 mmHg 64%
    08:00 +8°C° 0 mm 2 mps 747 mmHg 52%
    09:00 +9°C° 0 mm 2 mps 748 mmHg 39%
    10:00 +10°C° 0 mm 2 mps 748 mmHg 39%
    11:00 +12°C° 0 mm 2 mps 748 mmHg 39%
    12:00 +14°C° 0 mm 1 mps 748 mmHg 38%
    13:00 +14°C° 0 mm 2 mps 748 mmHg 39%
    14:00 +14°C° 0 mm 2 mps 748 mmHg 40%
    15:00 +14°C° 0 mm 2 mps 747 mmHg 40%
    16:00 +13°C° 0 mm 2 mps 747 mmHg 46%
    17:00 +12°C° 0 mm 2 mps 747 mmHg 51%
    18:00 +9°C° 0 mm 2 mps 747 mmHg 57%
    19:00 +9°C° 0 mm 2 mps 748 mmHg 63%
    20:00 +9°C° 0 mm 1 mps 748 mmHg 68%
    21:00 +8°C° 0 mm 1 mps 749 mmHg 74%
    22:00 +7°C° 0 mm 1 mps 749 mmHg 76%
    23:00 +7°C° 0 mm 1 mps 749 mmHg 78%

    29 March, Friday

    Time Temperature Precipitation Wind Pressure Humidity
    00:00 +7°C° 0 mm 1 mps 749 mmHg 80%
    01:00 +6°C° 0 mm 1 mps 748 mmHg 80%
    02:00 +5°C° 0 mm 1 mps 748 mmHg 80%
    03:00 +5°C° 0 mm 1 mps 748 mmHg 80%
    04:00 +4°C° 0 mm 1 mps 748 mmHg 78%
    05:00 +4°C° 0 mm 1 mps 747 mmHg 75%
    06:00 +3°C° 0 mm 1 mps 747 mmHg 72%
    07:00 +5°C° 0 mm 1 mps 747 mmHg 61%
    08:00 +5°C° 0 mm 2 mps 748 mmHg 51%
    09:00 +5°C° 0 mm 3 mps 748 mmHg 40%
    10:00 +8°C° 0 mm 3 mps 748 mmHg 36%
    11:00 +8°C° 0 mm 4 mps 747 mmHg 31%
    12:00 +10°C° 0 mm 4 mps 747 mmHg 27%
    13:00 +10°C° 0 mm 4 mps 747 mmHg 25%
    14:00 +10°C° 0 mm 5 mps 747 mmHg 23%
    15:00 +12°C° 0 mm 5 mps 746 mmHg 21%
    16:00 +10°C° 0 mm 5 mps 747 mmHg 24%
    17:00 +10°C° 0 mm 4 mps 747 mmHg 26%
    18:00 +8°C° 0 mm 4 mps 747 mmHg 29%
    19:00 +6°C° 0 mm 4 mps 748 mmHg 33%
    20:00 +5°C° 0 mm 3 mps 749 mmHg 37%
    21:00 +3°C° 0 mm 3 mps 749 mmHg 42%
    22:00 +4°C° 0 mm 2 mps 750 mmHg 47%
    23:00 +3°C° 0 mm 2 mps 750 mmHg 53%
    Show more